EW4543 Weather Reports


Display with metric or nautical units.
time (UTC)temp
F
wind
direction
speed
MPH
gust
MPH
rain 1hr
in
rain 24hr
in
rain mn
in
humidity
%
barometer
mb
20260505061513 47 279 0.0 1.0 0.03 0.20 0.20 95 1011.4
20260505060011 47 353 0.0 0.0 0.03 0.19 0.19 95 1011.5
20260505054510 47 353 0.0 0.0 0.03 0.19 0.19 95 1011.4
20260505053009 47 353 0.0 0.0 0.04 0.19 0.19 95 1011.3
20260505051509 47 353 0.0 0.0 0.02 0.17 0.17 95 1011.8
20260505041504 47 353 0.0 0.0 0.09 0.15 0.15 95 1011.9
20260505040017 47 353 0.0 1.0 0.11 0.14 0.14 95 1012.0
20260505034610 47 321 0.0 0.0 0.11 0.11 0.11 95 1012.0
20260505033101 47 320 0.0 0.0 0.08 0.08 0.08 95 1011.7
20260505031600 48 320 0.0 0.0 0.06 0.06 0.06 95 1011.6
20260505030104 48 319 0.0 0.0 0.03 0.03 0.03 95 1011.4
20260505024557 48 319 0.0 0.0 0.00 0.00 0.00 95 1011.5
20260505023107 48 319 0.0 0.0 0.00 0.00 0.00 95 1011.3
20260505021600 48 319 0.0 0.0 0.00 0.00 0.00 95 1011.2
20260505020058 48 319 0.0 0.0 0.00 0.00 0.00 95 1011.3
20260505014555 48 320 0.0 0.0 0.00 0.00 0.00 94 1011.5
20260505013054 48 319 0.0 0.0 0.00 0.00 0.00 94 1011.3
20260505011556 48 320 0.0 0.0 0.00 0.00 0.00 94 1011.5
20260505004553 48 319 0.0 0.0 0.00 0.00 0.00 94 1011.3
20260505003051 49 320 0.0 0.0 0.00 0.00 0.00 94 1011.6
20260505003003 49 320 0.0 0.0 0.00 0.00 0.00 94 1011.6
20260505001552 48 320 0.0 0.0 0.00 0.00 0.00 94 1011.4
20260505000100 48 320 0.0 0.0 0.00 0.00 0.00 94 1011.4
20260504234549 48 321 0.0 0.0 0.00 0.00 0.00 93 1011.7
20260504233053 48 321 0.0 0.0 0.00 0.00 0.00 93 1011.9
20260504231549 49 320 0.0 0.0 0.00 0.00 0.00 93 1011.7
20260504230049 49 321 0.0 0.0 0.00 0.00 0.00 93 1011.7
20260504224549 49 221 0.0 0.0 0.00 0.00 0.00 93 1011.9
20260504223048 49 221 0.0 0.0 0.00 0.00 0.00 93 1011.9
20260504221547 49 221 0.0 0.0 0.00 0.00 0.00 92 1011.8
20260504220108 50 221 0.0 0.0 0.00 0.00 0.00 92 1011.8
20260504214552 50 221 0.0 1.0 0.00 0.00 0.00 92 1011.9
20260504213052 50 225 0.0 0.0 0.00 0.00 0.00 93 1011.7
20260504211545 50 225 0.0 1.0 0.00 0.00 0.00 93 1011.7
20260504210045 50 225 0.0 0.0 0.00 0.00 0.00 93 1011.7
20260504204544 49 225 0.0 1.0 0.00 0.00 0.00 92 1011.7
20260504203044 49 225 0.0 1.0 0.00 0.00 0.00 93 1011.6
20260504201544 50 223 0.0 1.0 0.00 0.00 0.00 93 1011.5
20260504200049 50 248 0.0 1.0 0.00 0.00 0.00 93 1011.4
20260504194546 49 248 0.0 0.0 0.00 0.01 0.00 93 1011.4
20260504193043 49 249 0.0 0.0 0.00 0.01 0.00 92 1011.5
20260504191552 49 248 0.0 1.0 0.00 0.01 0.00 93 1011.8
20260504190049 49 248 0.0 0.0 0.00 0.01 0.00 92 1011.7
20260504184552 49 248 0.0 0.0 0.00 0.01 0.00 92 1011.8
20260504183048 49 248 0.0 0.0 0.00 0.01 0.00 92 1011.8
20260504181546 49 248 0.0 0.0 0.00 0.01 0.00 92 1011.9
20260504180039 49 248 0.0 1.0 0.00 0.01 0.00 92 1011.7
20260504174537 49 248 0.0 0.0 0.00 0.02 0.00 92 1011.5
20260504173036 49 248 0.0 1.0 0.00 0.02 0.00 92 1011.5
20260504171535 49 250 0.0 0.0 0.00 0.02 0.00 92 1011.3
20260504130135 48 214 0.0 0.0 0.00 0.02 0.00 90 1010.1
20260504081557 51 187 0.0 0.0 0.00 0.02 0.00 85 1010.2